Location: Boiro
(42.6475°N, 8.8834°W)
Time: 03:02:42
(UTC+01:00)

Vanguard 1 Rocket - Pass Details

Date: 09 December 2021
Orbit: 651 x 4224 km, 34.3° (Epoch: 21 January)

Event Time Altitude Azimuth Distance (km) Brightness Sun altitude
Rises 01:11:59 0° 203° (SSW) 3,464 - -69.9°
Reaches altitude 10° 01:14:42 10° 186° (S) 2,816 - -70.0°
Maximum altitude 01:19:49 22° 138° (SE) 2,636 - -70.1°
Drops below altitude 10° 01:27:27 10° 93° (E) 4,427 - -70.2°
Exits shadow 01:31:40 - 84° (E) 5,681 11.5 -70.2°
Sets 01:33:14 0° 82° (E) 6,145 11.7 -70.1°
